Location: Rounton
(54.4000°N, 1.3500°W)
Time: 12:43:42
(UTC+00:00)

Transit 4A - Pass Details

Date: 04 December 2021
Orbit: 864 x 981 km, 66.8° (Epoch: 18 January)

Event Time Altitude Azimuth Distance (km) Brightness Sun altitude
Rises 21:53:58 0° 261° (W) 3,498 - -50.6°
Reaches altitude 10° 21:56:39 10° 270° (W) 2,577 - -50.9°
Maximum altitude 22:02:06 35° 335° (NNW) 1,448 - -51.5°
Drops below altitude 10° 22:07:43 10° 41° (NE) 2,659 - -52.1°
Sets 22:10:33 0° 50° (NE) 3,624 - -52.4°
